PHASE 3B (AO-10)

Last updated on Tue Dec 03 2024 00:03:02 GMT+0000 (Coordinated Universal Time)

1 14129U 83058B 24336.46377770 -.00000387 00000+0 00000+0 0 9997 2 14129 27.2815 312.7662 6040576 321.4430 7.8646 2.05871336283904
UTC large
Height (km)
Speed (km/s)
/
Latitude / Longitude
Inclination (degrees)
Orbital Period (minutes)
Azimuth
Elevation
Range (km)
Doppler Factor

Next 0 passes for location: London (51.5072 / 0.1276)

Sorry there are no passes over London.